| time (UTC) | temp F | wind direction | speed MPH | gust MPH | rain 1hr in | rain 24hr in | rain mn in | humidity % | barometer mb |
| 20260510014520 | 78 | 84 | 0.0 | 2.0 | 0.00 | 0.00 | 0.00 | 65 | 1008.8 |
| 20260510013027 | 79 | 111 | 0.0 | 2.0 | 0.00 | 0.00 | 0.00 | 64 | 1008.7 |
| 20260510011516 | 80 | 77 | 2.0 | 4.0 | 0.00 | 0.00 | 0.00 | 63 | 1008.5 |
| 20260510010012 | 81 | 84 | 2.0 | 6.0 | 0.00 | 0.00 | 0.00 | 64 | 1008.3 |
| 20260510004517 | 82 | 80 | 3.0 | 7.0 | 0.00 | 0.00 | 0.00 | 64 | 1008.2 |
| 20260510003025 | 84 | 78 | 3.0 | 7.0 | 0.00 | 0.00 | 0.00 | 64 | 1008.1 |
| 20260510001527 | 84 | 71 | 3.0 | 8.0 | 0.00 | 0.00 | 0.00 | 63 | 1008.2 |
| 20260510000014 | 85 | 63 | 2.0 | 8.0 | 0.00 | 0.00 | 0.00 | 63 | 1008.0 |
| 20260509234514 | 86 | 51 | 3.0 | 6.0 | 0.00 | 0.00 | 0.00 | 61 | 1007.9 |
| 20260509233018 | 86 | 79 | 3.0 | 7.0 | 0.00 | 0.00 | 0.00 | 60 | 1007.9 |
| 20260509231522 | 87 | 63 | 2.0 | 7.0 | 0.00 | 0.00 | 0.00 | 58 | 1007.9 |
| 20260509230028 | 87 | 98 | 3.0 | 9.0 | 0.00 | 0.00 | 0.00 | 59 | 1008.0 |
| 20260509224512 | 88 | 58 | 4.0 | 7.0 | 0.00 | 0.00 | 0.00 | 58 | 1007.9 |
| 20260509223017 | 88 | 96 | 2.0 | 6.0 | 0.00 | 0.00 | 0.00 | 54 | 1007.8 |
| 20260509221521 | 88 | 237 | 0.0 | 1.0 | 0.00 | 0.00 | 0.00 | 55 | 1007.8 |
| 20260509220003 | 88 | 34 | 1.0 | 5.0 | 0.00 | 0.00 | 0.00 | 53 | 1007.9 |
| 20260509214513 | 88 | 40 | 6.0 | 9.0 | 0.00 | 0.00 | 0.00 | 53 | 1008.0 |
| 20260509213015 | 88 | 101 | 1.0 | 6.0 | 0.00 | 0.00 | 0.00 | 54 | 1008.1 |
| 20260509211520 | 88 | 341 | 3.0 | 8.0 | 0.00 | 0.00 | 0.00 | 49 | 1008.4 |
| 20260509210026 | 88 | 326 | 2.0 | 8.0 | 0.00 | 0.00 | 0.00 | 50 | 1008.6 |
| 20260509204535 | 88 | 300 | 4.0 | 9.0 | 0.00 | 0.00 | 0.00 | 48 | 1009.0 |
| 20260509203007 | 88 | 38 | 4.0 | 10.0 | 0.00 | 0.00 | 0.00 | 50 | 1009.1 |
| 20260509201514 | 87 | 332 | 3.0 | 7.0 | 0.00 | 0.00 | 0.00 | 49 | 1009.3 |
| 20260509200020 | 87 | 43 | 2.0 | 8.0 | 0.00 | 0.00 | 0.00 | 52 | 1009.4 |
| 20260509194528 | 86 | 227 | 2.0 | 9.0 | 0.00 | 0.00 | 0.00 | 54 | 1009.5 |
| 20260509193029 | 86 | 272 | 3.0 | 9.0 | 0.00 | 0.00 | 0.00 | 55 | 1009.6 |
| 20260509191518 | 86 | 327 | 5.0 | 9.0 | 0.00 | 0.00 | 0.00 | 56 | 1009.7 |
| 20260509190016 | 85 | 319 | 4.0 | 11.0 | 0.00 | 0.00 | 0.00 | 57 | 1009.8 |
| 20260509184538 | 85 | 276 | 7.0 | 10.0 | 0.00 | 0.00 | 0.00 | 58 | 1009.8 |
| 20260509183029 | 85 | 293 | 6.0 | 9.0 | 0.00 | 0.00 | 0.00 | 57 | 1009.9 |
| 20260509181528 | 84 | 320 | 4.0 | 11.0 | 0.00 | 0.00 | 0.00 | 57 | 1010.2 |
| 20260509180015 | 84 | 329 | 5.0 | 10.0 | 0.00 | 0.00 | 0.00 | 58 | 1010.3 |
| 20260509174518 | 84 | 5 | 6.0 | 13.0 | 0.00 | 0.00 | 0.00 | 59 | 1010.4 |
| 20260509173022 | 83 | 340 | 6.0 | 11.0 | 0.00 | 0.00 | 0.00 | 59 | 1010.6 |
| 20260509171533 | 83 | 328 | 5.0 | 11.0 | 0.00 | 0.00 | 0.00 | 58 | 1010.7 |
| 20260509170028 | 82 | 311 | 7.0 | 15.0 | 0.00 | 0.00 | 0.00 | 59 | 1010.8 |
| 20260509164517 | 82 | 340 | 6.0 | 15.0 | 0.00 | 0.00 | 0.00 | 59 | 1010.8 |
| 20260509163004 | 81 | 5 | 5.0 | 12.0 | 0.00 | 0.00 | 0.00 | 63 | 1010.8 |
| 20260509161507 | 81 | 306 | 5.0 | 12.0 | 0.00 | 0.00 | 0.00 | 64 | 1010.9 |
| 20260509160010 | 80 | 286 | 7.0 | 13.0 | 0.00 | 0.00 | 0.00 | 66 | 1010.8 |
| 20260509154517 | 80 | 348 | 6.0 | 13.0 | 0.00 | 0.00 | 0.00 | 65 | 1010.8 |
| 20260509153031 | 79 | 317 | 8.0 | 13.0 | 0.00 | 0.00 | 0.00 | 63 | 1010.8 |
| 20260509151504 | 78 | 298 | 6.0 | 14.0 | 0.00 | 0.00 | 0.00 | 69 | 1010.6 |
| 20260509150004 | 77 | 301 | 5.0 | 10.0 | 0.00 | 0.00 | 0.00 | 74 | 1010.6 |
| 20260509144523 | 76 | 280 | 6.0 | 11.0 | 0.00 | 0.00 | 0.00 | 75 | 1010.7 |
| 20260509143019 | 75 | 317 | 6.0 | 11.0 | 0.00 | 0.00 | 0.00 | 75 | 1010.7 |
| 20260509141529 | 75 | 294 | 8.0 | 12.0 | 0.00 | 0.00 | 0.00 | 75 | 1010.8 |
| 20260509140026 | 74 | 291 | 6.0 | 11.0 | 0.00 | 0.00 | 0.00 | 77 | 1010.8 |
| 20260509134515 | 73 | 306 | 6.0 | 12.0 | 0.00 | 0.00 | 0.00 | 77 | 1010.6 |
| 20260509133020 | 73 | 310 | 9.0 | 14.0 | 0.00 | 0.00 | 0.00 | 78 | 1010.4 |
| 20260509131522 | 71 | 284 | 3.0 | 7.0 | 0.00 | 0.00 | 0.00 | 84 | 1010.1 |
| 20260509130028 | 70 | 169 | 0.0 | 0.0 | 0.00 | 0.00 | 0.00 | 90 | 1010.0 |
| 20260509124530 | 69 | 169 | 0.0 | 0.0 | 0.00 | 0.00 | 0.00 | 90 | 1010.1 |
| 20260509123009 | 68 | 169 | 0.0 | 0.0 | 0.00 | 0.00 | 0.00 | 90 | 1010.0 |
| 20260509121527 | 68 | 288 | 0.0 | 0.0 | 0.00 | 0.00 | 0.00 | 90 | 1010.2 |
| 20260509120022 | 68 | 288 | 0.0 | 0.0 | 0.00 | 0.00 | 0.00 | 89 | 1010.5 |
| 20260509114533 | 69 | 288 | 0.0 | 2.0 | 0.00 | 0.00 | 0.00 | 90 | 1010.6 |
| 20260509113033 | 69 | 286 | 0.0 | 2.0 | 0.00 | 0.00 | 0.00 | 90 | 1010.3 |
| 20260509111514 | 69 | 281 | 1.0 | 7.0 | 0.00 | 0.00 | 0.00 | 91 | 1010.2 |
| 20260509110020 | 69 | 280 | 6.0 | 15.0 | 0.00 | 0.00 | 0.00 | 91 | 1009.9 |
| 20260509104537 | 69 | 299 | 5.0 | 13.0 | 0.00 | 0.00 | 0.00 | 91 | 1009.7 |
| 20260509103006 | 68 | 224 | 3.0 | 9.0 | 0.00 | 0.00 | 0.00 | 91 | 1008.5 |
| 20260509101516 | 68 | 185 | 4.0 | 11.0 | 0.00 | 0.00 | 0.00 | 91 | 1007.9 |
| 20260509100016 | 68 | 180 | 6.0 | 16.0 | 0.00 | 0.00 | 0.00 | 90 | 1007.7 |
| 20260509094505 | 68 | 183 | 7.0 | 16.0 | 0.00 | 0.00 | 0.00 | 89 | 1007.6 |
| 20260509093002 | 68 | 172 | 9.0 | 17.0 | 0.00 | 0.00 | 0.00 | 89 | 1007.7 |
| 20260509091507 | 68 | 191 | 9.0 | 14.0 | 0.00 | 0.00 | 0.00 | 88 | 1007.7 |
| 20260509090014 | 68 | 169 | 5.0 | 8.0 | 0.00 | 0.00 | 0.00 | 87 | 1008.2 |
| 20260509084522 | 68 | 167 | 5.0 | 8.0 | 0.00 | 0.00 | 0.00 | 85 | 1008.6 |
| 20260509083022 | 68 | 173 | 3.0 | 9.0 | 0.00 | 0.00 | 0.00 | 85 | 1009.4 |
| 20260509081515 | 69 | 180 | 4.0 | 9.0 | 0.00 | 0.00 | 0.00 | 85 | 1009.9 |
| 20260509080012 | 69 | 192 | 1.0 | 7.0 | 0.00 | 0.00 | 0.00 | 85 | 1011.3 |
| 20260509074522 | 69 | 207 | 1.0 | 6.0 | 0.00 | 0.00 | 0.00 | 85 | 1011.5 |
| 20260509073020 | 69 | 256 | 1.0 | 4.0 | 0.00 | 0.00 | 0.00 | 85 | 1011.4 |
| 20260509071525 | 68 | 236 | 0.0 | 1.0 | 0.00 | 0.00 | 0.00 | 85 | 1011.3 |
| 20260509070012 | 68 | 275 | 0.0 | 2.0 | 0.00 | 0.00 | 0.00 | 85 | 1011.2 |
| 20260509064512 | 68 | 298 | 0.0 | 2.0 | 0.00 | 0.00 | 0.00 | 84 | 1011.5 |
| 20260509063025 | 68 | 350 | 0.0 | 3.0 | 0.00 | 0.00 | 0.00 | 84 | 1011.4 |
| 20260509061523 | 68 | 340 | 0.0 | 4.0 | 0.00 | 0.00 | 0.00 | 82 | 1011.3 |
| 20260509060029 | 68 | 355 | 1.0 | 2.0 | 0.00 | 0.00 | 0.00 | 80 | 1010.9 |
| 20260509054508 | 68 | 149 | 0.0 | 0.0 | 0.00 | 0.00 | 0.00 | 80 | 1010.6 |
| 20260509053011 | 69 | 149 | 0.0 | 1.0 | 0.00 | 0.00 | 0.00 | 80 | 1010.7 |
| 20260509051518 | 69 | 171 | 0.0 | 4.0 | 0.00 | 0.00 | 0.00 | 80 | 1010.4 |
| 20260509050022 | 69 | 163 | 0.0 | 3.0 | 0.00 | 0.00 | 0.00 | 79 | 1010.5 |
| 20260509044526 | 70 | 126 | 0.0 | 0.0 | 0.00 | 0.00 | 0.00 | 79 | 1011.2 |
| 20260509043011 | 71 | 126 | 0.0 | 2.0 | 0.00 | 0.00 | 0.00 | 79 | 1010.8 |
| 20260509041515 | 71 | 120 | 0.0 | 0.0 | 0.00 | 0.00 | 0.00 | 78 | 1010.7 |
| 20260509040022 | 71 | 120 | 0.0 | 0.0 | 0.00 | 0.00 | 0.00 | 78 | 1010.6 |
| 20260509034526 | 72 | 107 | 0.0 | 1.0 | 0.00 | 0.00 | 0.00 | 78 | 1010.6 |
| 20260509033028 | 72 | 144 | 0.0 | 2.0 | 0.00 | 0.00 | 0.00 | 78 | 1010.3 |
| 20260509031515 | 72 | 112 | 0.0 | 2.0 | 0.00 | 0.00 | 0.00 | 78 | 1010.2 |
| 20260509030014 | 71 | 165 | 0.0 | 4.0 | 0.00 | 0.00 | 0.00 | 79 | 1009.6 |
| 20260509024522 | 72 | 155 | 0.0 | 0.0 | 0.00 | 0.00 | 0.00 | 79 | 1009.7 |
| 20260509023029 | 72 | 155 | 0.0 | 0.0 | 0.00 | 0.00 | 0.00 | 79 | 1009.6 |
| 20260509021512 | 72 | 155 | 0.0 | 1.0 | 0.00 | 0.00 | 0.00 | 79 | 1009.5 |
| 20260509020024 | 72 | 177 | 0.0 | 1.0 | 0.00 | 0.00 | 0.00 | 79 | 1009.3 |